Weather History for Hawthorne, CA

Change the Weather History Date:

Sunday, April 28, 2013

  Actual Average Record
Temperature  
Mean Temperature 62 °F -  
Max Temperature 69 °F 68 °F 98 °F (2008)
Min Temperature 57 °F 54 °F 46 °F (1984)
Degree Days  
Heating Degree Days 2    
Growing Degree Days 12 (Base 50)    
Moisture  
Dew Point 55 °F    
Average Humidity 78    
Maximum Humidity 90    
Minimum Humidity 63    
Precipitation  
Precipitation 0.00 in - - ()
Sea Level Pressure  
Sea Level Pressure 29.95 in    
Wind  
Wind Speed 4 mph (West)    
Max Wind Speed 13 mph    
Max Gust Speed -    
Visibility 9 miles    
Events      
Averages and records for this station are not official NWS values.
T = Trace of Precipitation, MM = Missing Value Source: NWS Daily Summary

Daily Weather History Graph

Daily Weather History Graph

Search for Another Location

Airport:

Trip Planner

Search our weather history database for the weather conditions in past years. The results will help you decide how hot, cold, wet, or windy it might be!

Date:

Astronomy

Apr. 28, 2013 Rise Set
Actual Time 6:07 AM PDT 7:34 PM PDT
Civil Twilight 5:40 AM PDT 8:01 PM PDT
Nautical Twilight 5:08 AM PDT 8:33 PM PDT
Astronomical Twilight 4:35 AM PDT 9:06 PM PDT
Moon 11:05 PM PDT 8:33 AM PDT
Length of Visible Light 14h 20m
Length of Day
13h 27m
Waning Gibbous, 88% of the Moon is Illuminated
Apr 28
Waning Gibbous
May 2
Last Quarter
May 9
New
May 17
First Quarter
May 24
Full

Hourly Weather History & Observations

Time (PDT) Temp. Dew Point Humidity Pressure Visibility Wind Dir Wind Speed Gust Speed Precip Events Conditions
12:53 AM 59.0 °F 55.0 °F 87% 30.02 in 10.0 mi Calm Calm - N/A   Clear
1:53 AM 59.0 °F 55.0 °F 87% 30.01 in 10.0 mi Calm Calm - N/A   Clear
2:15 AM 59.0 °F 55.4 °F 88% 30.01 in 10.0 mi Calm Calm - N/A   Mostly Cloudy
2:53 AM 60.1 °F 55.0 °F 83% 30.01 in 10.0 mi Calm Calm - N/A   Overcast
3:53 AM 59.0 °F 54.0 °F 83% 30.00 in 9.0 mi SE 4.6 mph - N/A   Overcast
4:53 AM 59.0 °F 54.0 °F 83% 30.00 in 8.0 mi East 3.5 mph - N/A   Overcast
6:53 AM 59.0 °F 54.0 °F 83% 30.00 in 7.0 mi Calm Calm - N/A   Overcast
7:53 AM 60.1 °F 54.0 °F 80% 30.01 in 7.0 mi Variable 3.5 mph - N/A   Overcast
8:53 AM 61.0 °F 54.0 °F 78% 30.00 in 8.0 mi Calm Calm - N/A   Overcast
9:53 AM 64.0 °F 54.0 °F 70% 29.99 in 9.0 mi Calm Calm - N/A   Scattered Clouds
10:53 AM 68.0 °F 55.0 °F 63% 29.98 in 10.0 mi WSW 5.8 mph - N/A   Clear
11:53 AM 68.0 °F 55.0 °F 63% 29.97 in 10.0 mi West 8.1 mph - N/A   Clear
12:53 PM 68.0 °F 55.0 °F 63% 29.96 in 10.0 mi West 8.1 mph - N/A   Clear
1:53 PM 68.0 °F 55.0 °F 63% 29.94 in 10.0 mi WSW 12.7 mph - N/A   Clear
2:53 PM 66.9 °F 55.0 °F 66% 29.91 in 10.0 mi WSW 11.5 mph - N/A   Clear
3:53 PM 66.0 °F 55.0 °F 68% 29.89 in 10.0 mi West 10.4 mph - N/A   Clear
4:53 PM 64.9 °F 55.0 °F 70% 29.89 in 8.0 mi West 9.2 mph - N/A   Clear
5:36 PM 62.6 °F 55.4 °F 77% 29.88 in 9.0 mi West 10.4 mph - N/A   Mostly Cloudy
5:53 PM 63.0 °F 55.0 °F 75% 29.88 in 10.0 mi WNW 8.1 mph - N/A   Overcast
6:53 PM 61.0 °F 55.0 °F 81% 29.88 in 10.0 mi West 9.2 mph - N/A   Overcast
7:53 PM 59.0 °F 54.0 °F 83% 29.88 in 10.0 mi West 6.9 mph - N/A   Overcast
8:53 PM 59.0 °F 55.0 °F 87% 29.89 in 8.0 mi West 6.9 mph - N/A   Overcast
9:53 PM 57.9 °F 55.0 °F 90% 29.91 in 8.0 mi SW 4.6 mph - N/A   Overcast
10:53 PM 57.9 °F 54.0 °F 87% 29.91 in 8.0 mi WNW 3.5 mph - N/A   Overcast
11:53 PM 57.0 °F 54.0 °F 89% 29.91 in 7.0 mi WSW 3.5 mph - N/A   Overcast